Regional Weather Roundup
Issued by NWS Sterling, VA

Home | Current Version | Previous Version | Graphics & Text | Print | Product List | Glossary On
Versions: 1 2 3 4 5 6 7 8 9 10 11 12 13 14 15 16 17 18 19 20 21 22 23 24 25 26 27 28 29 30 31 32 33 34 35 36 37 38 39 40 41 42 43 44 45 46 47 48 49 50
000
ASUS41 KLWX 080410
RWRLWX

REGIONAL WEATHER ROUNDUP
NATIONAL WEATHER SERVICE BALTIMORE MD/WASHINGTON DC
1200 AM EDT WED JUL 08 2015

Note: "FAIR" indicates few or no clouds below 12,000 feet
with no significant weather and/or obstructions to visibility.
 TC=TEMPERATURE CELSIUS

 * =Non NWS site. Station does not report precipitation (e.g. rain,
    snow, etc.), thunder, or fog.

DCZ001-MDZ009-015-VAZ040>042-051-053>054-080500-
WASHINGTON METRO

CITY           SKY/WX    TMP DP  RH WIND       PRES   REMARKS
WASHINGTON NAT MOCLDY    81  72  74 S9        30.01S
DULLES         PTCLDY    77  70  79 S10       30.01S
ANDREWS AFB    CLEAR     78  72  79 S12       30.01S
FT BELVOIR     CLEAR     78  72  81 SE3       30.01F
QUANTICO       CLEAR     80  70  71 SW6       30.02F
COLLEGE PARK*  CLEAR     81  70  69 CALM      30.00F
LEESBURG*      PTCLDY    79  73  83 SW6       30.02S
MANASSAS*      CLEAR     75  73  94 S3          N/A
GAITHERSBURG*  CLEAR     79  68  69 S5        30.05S

$$

MDZ006>007-011-014-080500-
BALTIMORE METRO

CITY           SKY/WX    TMP DP  RH WIND       PRES   REMARKS
BWI AIRPORT    PTCLDY    77  70  79 SW3       29.99F
MD SCIENCE CTR   N/A     81  69  67 MISG      29.99S
MARTIN STATE   CLEAR     81  72  74 S6        30.00F
ANNAPOLIS      PTCLDY    80  69  69 S5        30.00F
FORT MEADE*    CLEAR     70  68  94 CALM      30.02F

$$

MDZ012-015-019>023-080500-
MARYLAND EASTERN SHORE

CITY           SKY/WX    TMP DP  RH WIND       PRES   REMARKS
OCEAN CITY     CLEAR     78  75  90 S5        30.04F
SALISBURY      CLEAR     75  74  96 S5        30.04S
BAY BRIDGE AP*   N/A     81  68  65 S8        30.01S
CAMBRIDGE*     PTCLDY    79  72  78 CALM      30.02S
EASTON*        PTCLDY   N/A N/A N/A SW7       30.05F

$$

MDZ017>025-080500-
SOUTHERN MARYLAND

CITY           SKY/WX    TMP DP  RH WIND       PRES   REMARKS
PATUXENT RIVER PTCLDY    79  71  76 SW8       30.02F
ST INIGOES     NOT AVBL
LEONARDTOWN*   PTCLDY    79  70  73 SW6       30.04F

$$

MDZ003>005-080500-
NORTH CENTRAL MARYLAND

CITY           SKY/WX    TMP DP  RH WIND       PRES   REMARKS
FREDERICK*     PTCLDY    77  72  83 S7        30.02S
HAGERSTOWN APT CLOUDY    79  69  71 SW6       30.00S
WESTMINSTER*   PTCLDY    77  73  88 S6        30.01F

$$

MDZ501>502-080500-
WESTERN MARYLAND

CITY           SKY/WX    TMP DP  RH WIND       PRES   REMARKS
OAKLAND*       CLOUDY    66 N/A N/A SW10G20   30.13R
CUMBERLAND*    MOCLDY    75  68  78 S7        30.05S

$$

VAZ025>031-080500-
SHENANDOAH VALLEY

CITY           SKY/WX    TMP DP  RH WIND       PRES   REMARKS
WINCHESTER*    MOCLDY    79  68  69 SW6       30.03S
FRONT ROYAL*   FAIR      77  70  78 SW5       30.02F
LURAY*         FAIR      79  70  73 SW7       30.05S
NEW MARKET*    FAIR      74  68  82 W3        30.04S
STAUNTON*      PTCLDY    73  69  86 CALM      30.10S
WAYNESBORO*    FAIR      71  66  85 S3        30.10S

$$

WVZ021-048>050-054>055-080500-
EASTERN WEST VIRGINIA PANHANDLE

CITY           SKY/WX    TMP DP  RH WIND       PRES   REMARKS
MARTINSBURG    MOCLDY    77  69  76 S3        30.01F
PETERSBURG*    MOCLDY    68  64  88 CALM      30.07R

$$

VAZ036>039-050-080500-
CENTRAL FOOTHILLS

CITY           SKY/WX    TMP DP  RH WIND       PRES   REMARKS
CHARLOTTESVILL CLEAR     76  68  76 SW3       30.05S
CULPEPER*      CLEAR     74  71  89 CALM      30.04S
ORANGE*        CLEAR     73  72  94 CALM      30.06S
GORDONSVILLE*  FAIR      75  72  88 SW5       30.04S
WARRENTON*     FAIR      77  73  87 SW5       30.03S

$$

VAZ055>057-080500-
NORTH AND CENTRAL PIEDMONT

CITY           SKY/WX    TMP DP  RH WIND       PRES   REMARKS
FREDERICKSBRG* CLEAR     80  73  78 SW7       30.02S
STAFFORD*      CLEAR     76  70  82 CALM      30.07S

$$

NCZ024-NYZ072-PAZ021-071-VAZ022-071-080500-
OTHER REGIONAL OBSERVATIONS

CITY           SKY/WX    TMP DP  RH WIND       PRES   REMARKS
NEW YORK CITY  CLEAR     80  69  69 SW5       29.99F
PHILADELPHIA   PTCLDY    80  69  69 SW6       29.99S
PITTSBURGH     LGT RAIN  73  70  90 SW7       29.98S FOG
ROANOKE        PTCLDY    77  68  73 CALM      30.12S
RICHMOND       MOCLDY    77  72  84 S6        30.05S
RALEIGH        MOCLDY    80  72  76 SW10      30.11S

$$

ANZ530>537-080500-
MARINE OBSERVATIONS

STATION/POSITION TIME  TEMP    WIND        PRES
                       AIR SEA DIR/SP/G
                 (UTC) (F)     (DEG/KT/KT) (MB)
THOMAS PT LIGHT  0400   80     190/ 12     1016.4
BALT KEY BRIDGE  0300   80     190/  7/  8 1015.5F
COVE POINT       0300   81     220/ 10/ 11 1017.4S
LEWISETTA        0300   80 82  230/  6/  7 1017.0R
SOLOMONS ISLAND  0300      80                N/A
PINEY POINT      0300          220/  8/ 10   N/A

$$




USA.gov is the U.S. government's official web portal to all federal, state and local government web resources and services.